Tracking 27420 objects as of 28-May-2023
HD Live streaming from Space Station
objects crossing your sky now

OPS 4682 DEB

Track OPS 4682 DEB now!
10-day predictions


NORAD ID: 38448
Int'l Code: 1965-027FD
Perigee: 1,249.2 km
Apogee: 1,292.8 km
Inclination: 90.2 °
Period: 110.8 minutes
Semi major axis: 7641 km
RCS: 0.0144 m2 (small)
Launch date: April 3, 1965
Source: United States (US)
Launch site: AIR FORCE WESTERN TEST RANGE (AFWTR)

Note: This is SATELLITE DEBRIS
Your satellite tracking list
Your tracking list is empty




NASA's NSSDC Master Catalog

Two Line Element Set (TLE):
1 38448U 65027FD  23146.54011843  .00000803  00000-0  26561-2 0  9992
2 38448  90.2485 341.8567 0028514 322.6443  37.2696 12.99554339951889
Source of the keplerian elements: AFSPC